Date String (YYYY-MM-DD hh:mm:ss) UTC,Instrument flags,absolute air pressure of the measurement (hPa),sample flow rate (lpm),inlet stack bypass flow (lpm),air temperature of the measurement (°C),ambient temperature measured by the external sensor (°C),aerosol sample conditioner tube jacket temperature (°C),OPC LED temperature (°C),internal box temperature (°C),relative humidity of the measurement (%),span deviation,mass concentration of particles derived from Lorenz-Mie calculation of OPC scattering (μg/m³),mass concentration of particles derived from Lorenz-Mie calculation of OPC scattering (μg/m³),mass concentration of particles derived from Lorenz-Mie calculation of OPC scattering (μg/m³)
DateTimeUTC,F1_M11,P_M11,Q1_M11,Q2_M11,T1_M11,T2_M11,T3_M11,T4_M11,T5_M11,U1_M11,ZSPAN_M11,X2_M11,X0_M11,X1_M11
2023-10-17 07:00:00,SystemResetWarning,0832.4,5.00,000.00,028.9,027.3,000.0,037.3,030.5,13.9,0000.0,0003.36,0010.46,0002.67
2023-10-17 07:01:00,SystemResetWarning,0832.4,5.00,000.00,028.9,027.3,000.0,037.3,030.5,13.9,0000.0,0003.35,0010.13,0002.67
2023-10-17 07:02:00,SystemResetWarning,0832.3,5.00,000.00,028.9,027.3,000.0,037.3,030.4,13.9,0000.0,0003.33,0008.88,0002.66
2023-10-17 07:03:00,SystemResetWarning,0832.3,4.99,000.00,028.9,027.3,000.0,037.3,030.4,13.9,0000.0,0003.31,0008.73,0002.65
2023-10-17 07:04:00,SystemResetWarning,0832.3,5.00,000.00,028.9,027.3,000.0,037.3,030.4,13.9,0000.0,0003.31,0008.74,0002.63
2023-10-17 07:05:00,SystemResetWarning,0832.3,5.00,000.00,028.9,027.3,000.0,037.3,030.4,13.9,0000.0,0003.28,0007.92,0002.62
2023-10-17 07:06:00,SystemResetWarning,0832.3,5.00,000.00,028.9,027.3,000.0,037.3,030.4,14.0,0000.0,0003.27,0007.81,0002.60
2023-10-17 07:07:00,SystemResetWarning,0832.3,4.99,000.00,028.9,027.3,000.0,037.3,030.5,14.0,0000.0,0003.30,0007.99,0002.60
2023-10-17 07:08:00,SystemResetWarning,0832.3,5.00,000.00,028.8,027.3,000.0,037.3,030.4,13.9,0000.0,0003.30,0007.76,0002.60
2023-10-17 07:09:00,SystemResetWarning,0832.3,5.00,000.00,028.8,027.3,000.0,037.3,030.4,13.9,0000.0,0003.32,0007.38,0002.61
2023-10-17 07:10:00,SystemResetWarning,0832.3,5.00,000.00,028.8,027.3,000.0,037.3,030.4,13.9,0000.0,0003.34,0007.30,0002.61
2023-10-17 07:11:00,SystemResetWarning,0832.3,5.00,000.00,028.8,027.3,000.0,037.3,030.4,13.9,0000.0,0003.31,0008.11,0002.59
2023-10-17 07:12:00,SystemResetWarning,0832.3,5.00,000.00,028.8,027.3,000.0,037.3,030.5,13.9,0000.0,0003.33,0008.68,0002.58
2023-10-17 07:13:00,SystemResetWarning,0832.2,5.01,000.00,028.8,027.3,000.0,037.3,030.5,14.0,0000.0,0003.32,0008.84,0002.58
2023-10-17 07:14:00,SystemResetWarning,0832.2,5.01,000.00,028.8,027.3,000.0,037.3,030.4,13.9,0000.0,0003.33,0009.51,0002.58
2023-10-17 07:15:00,SystemResetWarning,0832.2,4.98,000.00,028.8,027.3,000.0,037.3,030.4,13.9,0000.0,0003.33,0010.24,0002.58
2023-10-17 07:16:00,SystemResetWarning,0832.3,5.00,000.00,028.8,027.3,000.0,037.3,030.4,13.9,0000.0,0003.34,0009.97,0002.58
2023-10-17 07:17:00,SystemResetWarning,0832.2,5.01,000.00,028.8,027.3,000.0,037.3,030.4,13.9,0000.0,0003.41,0010.04,0002.61
2023-10-17 07:18:00,SystemResetWarning,0832.2,5.01,000.00,028.8,027.3,000.0,037.3,030.4,13.9,0000.0,0003.38,0009.76,0002.63
2023-10-17 07:19:00,SystemResetWarning,0832.2,5.00,000.00,028.8,027.3,000.0,037.3,030.4,13.9,0000.0,0003.35,0009.47,0002.63
2023-10-17 07:20:00,SystemResetWarning,0832.2,4.99,000.00,028.8,027.3,000.0,037.3,030.4,13.9,0000.0,0003.36,0009.55,0002.63
2023-10-17 07:21:00,SystemResetWarning,0832.2,4.99,000.00,028.8,027.3,000.0,037.3,030.4,13.9,0000.0,0003.33,0009.47,0002.62
2023-10-17 07:22:00,SystemResetWarning,0832.2,4.99,000.00,028.8,027.3,000.0,037.3,030.4,13.9,0000.0,0003.35,0008.94,0002.64
2023-10-17 07:23:00,SystemResetWarning,0832.2,5.00,000.00,028.8,027.3,000.0,037.3,030.4,13.9,0000.0,0003.36,0008.26,0002.66
2023-10-17 07:24:00,SystemResetWarning,0832.2,5.00,000.00,028.8,027.3,000.0,037.3,030.4,13.9,0000.0,0003.38,0008.68,0002.68
2023-10-17 07:25:00,SystemResetWarning,0832.2,5.00,000.00,028.8,027.3,000.0,037.3,030.4,13.9,0000.0,0003.35,0007.99,0002.66
2023-10-17 07:26:00,SystemResetWarning,0832.2,5.01,000.00,028.8,027.3,000.0,037.3,030.4,13.9,0000.0,0003.36,0007.19,0002.67
2023-10-17 07:27:00,SystemResetWarning,0832.2,5.01,000.00,028.8,027.3,000.0,037.3,030.4,13.9,0000.0,0003.35,0007.41,0002.66
2023-10-17 07:28:00,SystemResetWarning,0832.2,4.99,000.00,028.8,027.3,000.0,037.3,030.4,13.9,0000.0,0003.29,0007.43,0002.63
2023-10-17 07:29:00,SystemResetWarning,0832.2,4.99,000.00,028.8,027.3,000.0,037.3,030.4,13.9,0000.0,0003.28,0007.40,0002.62
2023-10-17 07:30:00,SystemResetWarning,0832.2,5.00,000.00,028.8,027.3,000.0,037.3,030.4,13.9,0000.0,0003.29,0007.44,0002.62
2023-10-17 07:31:00,SystemResetWarning,0832.2,5.00,000.00,028.8,027.3,000.0,037.3,030.4,13.9,0000.0,0003.31,0007.53,0002.62
2023-10-17 07:32:00,SystemResetWarning,0832.2,5.00,000.00,028.8,027.3,000.0,037.3,030.4,13.9,0000.0,0003.29,0007.61,0002.62
2023-10-17 07:33:00,SystemResetWarning,0832.1,5.01,000.00,028.8,027.3,000.0,037.3,030.4,13.9,0000.0,0003.28,0007.95,0002.61
2023-10-17 07:34:00,SystemResetWarning,0832.1,5.00,000.00,028.8,027.3,000.0,037.3,030.4,13.9,0000.0,0003.26,0007.95,0002.60
2023-10-17 07:35:00,SystemResetWarning,0832.1,5.00,000.00,028.8,027.3,000.0,037.3,030.4,13.9,0000.0,0003.25,0007.50,0002.59
2023-10-17 07:36:00,SystemResetWarning,0832.1,5.00,000.00,028.8,027.3,000.0,037.3,030.4,13.9,0000.0,0003.30,0007.88,0002.60
2023-10-17 07:37:00,SystemResetWarning,0832.1,5.00,000.00,028.8,027.3,000.0,037.3,030.4,13.9,0000.0,0003.34,0008.19,0002.59
2023-10-17 07:38:00,SystemResetWarning,0832.1,5.00,000.00,028.8,027.3,000.0,037.3,030.4,13.9,0000.0,0003.30,0008.19,0002.58
2023-10-17 07:39:00,SystemResetWarning,0832.1,5.00,000.00,028.8,027.2,000.0,037.3,030.4,13.9,0000.0,0003.30,0008.45,0002.59
2023-10-17 07:40:00,SystemResetWarning,0832.1,4.99,000.00,028.8,027.2,000.0,037.3,030.4,13.9,0000.0,0003.31,0008.74,0002.58
2023-10-17 07:41:00,SystemResetWarning,0832.0,5.00,000.00,028.8,027.2,000.0,037.3,030.4,13.9,0000.0,0003.29,0008.77,0002.57
2023-10-17 07:42:00,SystemResetWarning,0832.0,5.00,000.00,028.8,027.2,000.0,037.3,030.4,13.8,0000.0,0003.28,0009.10,0002.55
2023-10-17 07:43:00,SystemResetWarning,0832.0,5.01,000.00,028.8,027.2,000.0,037.3,030.4,13.8,0000.0,0003.28,0009.65,0002.55
2023-10-17 07:44:00,SystemResetWarning,0832.1,5.00,000.00,028.8,027.3,000.0,037.3,030.4,13.8,0000.0,0003.25,0010.08,0002.55
2023-10-17 07:45:00,SystemResetWarning,0832.1,5.01,000.00,028.8,027.3,000.0,037.3,030.4,13.8,0000.0,0003.25,0010.12,0002.55
2023-10-17 07:46:00,SystemResetWarning,0832.1,5.00,000.00,028.8,027.3,000.0,037.3,030.4,13.8,0000.0,0003.26,0010.29,0002.54
2023-10-17 07:47:00,SystemResetWarning,0832.1,5.00,000.00,028.8,027.3,000.0,037.3,030.4,13.8,0000.0,0003.26,0010.88,0002.54
2023-10-17 07:48:00,SystemResetWarning,0832.1,4.99,000.00,028.8,027.3,000.0,037.3,030.4,13.8,0000.0,0003.23,0010.84,0002.55
2023-10-17 07:49:00,SystemResetWarning,0832.1,5.00,000.00,028.8,027.2,000.0,037.3,030.4,13.8,0000.0,0003.25,0010.77,0002.58
2023-10-17 07:50:00,SystemResetWarning,0832.0,4.99,000.00,028.8,027.2,000.0,037.3,030.4,13.8,0000.0,0003.28,0010.80,0002.59
2023-10-17 07:51:00,SystemResetWarning,0832.0,5.00,000.00,028.8,027.2,000.0,037.3,030.4,13.8,0000.0,0003.29,0010.80,0002.59
2023-10-17 07:52:00,SystemResetWarning,0832.0,5.00,000.00,028.8,027.2,000.0,037.3,030.4,13.8,0000.0,0003.28,0010.75,0002.58
2023-10-17 07:53:00,SystemResetWarning,0832.0,5.00,000.00,028.8,027.2,000.0,037.3,030.4,13.8,0000.0,0003.28,0010.69,0002.58
2023-10-17 07:54:00,SystemResetWarning,0832.0,5.01,000.00,028.8,027.2,000.0,037.3,030.4,13.8,0000.0,0003.27,0010.44,0002.55
2023-10-17 07:55:00,SystemResetWarning,0832.0,5.01,000.00,028.8,027.2,000.0,037.3,030.4,13.8,0000.0,0003.32,0010.04,0002.54
2023-10-17 07:56:00,SystemResetWarning,0832.0,5.01,000.00,028.8,027.2,000.0,037.3,030.4,13.8,0000.0,0003.32,0009.73,0002.53
2023-10-17 07:57:00,SystemResetWarning,0832.0,4.99,000.00,028.8,027.2,000.0,037.3,030.4,13.8,0000.0,0003.36,0009.56,0002.53
2023-10-17 07:58:00,SystemResetWarning,0832.1,4.99,000.00,028.8,027.2,000.0,037.2,030.4,13.8,0000.0,0003.35,0008.58,0002.52
2023-10-17 07:59:00,SystemResetWarning,0832.0,5.01,000.00,028.8,027.2,000.0,037.2,030.4,13.8,0000.0,0003.35,0008.50,0002.50
